Powrót do katalogu

STARLINK-32400

AktywnyŁącznośćVLEO
NORAD 61669·PAYLOAD·🇺🇸 United States

Wystrzelony Oct 26, 2024 z Cape Canaveral Space Force Station

Loading…

Następne Przeloty (najbliższe 24 godziny)

TLE

ŚwieżeSource: CelesTrak SupGP

Epoka: Sep 14, 2026, 22:55 UTC

1 61669C 24193J   26257.95534722  .00048286  00000+0  14268-2 0  2573
2 61669  53.1565 287.2792 0001198  93.8740 101.7035 15.34361790    19

Śledź STARLINK-32400 w czasie rzeczywistym z AllMySat

Download on the App Store